Regional Weather Roundup
Issued by NWS

Home | Current Version | Previous Version | Text Only | Print | Product List | Glossary On
Versions: 1 2 3 4 5 6 7 8 9 10 11 12 13 14 15 16 17 18 19 20 21 22 23 24 25 26 27 28 29 30 31 32 33 34 35 36 37 38 39 40 41 42 43 44 45 46 47 48 49 50
000
ASUS44 KEWX 171603
RWRTX
SOUTH TEXAS REGIONAL WEATHER ROUNDUP
NATIONAL WEATHER SERVICE AUSTIN/SAN ANTONIO TX
1000 AM CST TUE JAN 17 2017

NOTE: "FAIR" INDICATED FEW OR NO CLOUDS BELOW 12,000 FEET WITH NO
SIGNIFICANT WEATHER AND/OR OBSTRUCTIONS TO VISIBILITY.

* - THESE STATIONS ARE NOT NWS OR FAA STATIONS...AND ARE NOT SUBJECT
    TO NWS AND FAA QUALITY CONTROL.

TXZ171-172-183>190-171700-
TEXAS HILL COUNTRY AND EDWARDS PLATEAU

CITY           SKY/WX    TMP DP  RH WIND       PRES   REMARKS
JUNCTION       CLOUDY    48  40  73 NE16G24   30.11F WCI  42
*LLANO         CLOUDY    52  39  62 E8        30.19S
BURNET         CLOUDY    50  38  63 NE10      30.19R WCI  46
*HORSESHOE BAY CLOUDY    53  42  66 NE6       30.17R
*KERRVILLE     CLOUDY    52  45  75 NE10      30.13R
*FREDERICKSBRG CLOUDY    51  40  67 NE9       30.13R
*ROCKSPRINGS   CLOUDY    52  46  82 E13G20    30.10R
*BOERNE STAGE  CLOUDY    52  45  76 NE8       30.14S
*CASTROVILLE   CLOUDY    57  50  77 NE14      30.12R
HONDO          LGT RAIN  57  54  89 NE16G24   30.08F
*UVALDE        CLOUDY    59  53  80 E18G25    30.07R
DEL RIO        CLOUDY    60  53  77 NE5       30.03R
LAUGHLIN AFB   NOT AVBL
CARRIZO SPRGS  CLOUDY    63  61  94 E9        30.01R FOG
*EAGLE PASS    CLOUDY    61  57  88 MISG      30.03R FOG
$$

TXZ173-191>194-202-209-217>225-228-171700-
CENTRAL AND SOUTH CENTRAL TEXAS

CITY           SKY/WX    TMP DP  RH WIND       PRES   REMARKS
GEORGETOWN     RAIN      50  41  71 NE7       30.18R WCI  47
AUSTIN/BERGSTM LGT RAIN  52  49  89 N16       30.17R
AUSTIN/MABRY   LGT RAIN  51  48  89 N10       30.19R
*AUSTIN/EXEC   LGT RAIN  48  48 100 N14G20    30.17R WCI  43
*LAGO VISTA    RAIN      48  47  94 E6        30.18R WCI  46
SAN MARCOS     CLOUDY    52  48  87 N18       30.16R
NEW BRAUNFELS  CLOUDY    54  50  86 N16       30.13R
RANDOLPH AFB   NOT AVBL
PT SAN ANTONIO NOT AVBL
SAN ANTONIO    CLOUDY    55  47  74 NE12      30.12R
STINSON FIELD  CLOUDY    57  51  80 N18G25    30.09R
*PLEASANTON    CLOUDY    58  55  90 NE13G21   30.10R
*LA GRANGE     CLOUDY    56  55  94 N9        30.12R
*GIDDINGS      CLOUDY    53  51  94 NE10G17   30.16R
*GONZALES      CLOUDY    57  57  98 N12       30.12R
$$

TXZ163>164-176>182-195>201-210>213-226-227-235-171700-
SOUTHEAST TEXAS

CITY           SKY/WX    TMP DP  RH WIND       PRES   REMARKS
COLLEGE STN    LGT RAIN  54  52  93 NE16G22   30.17R FOG
*BRYAN         DRIZZLE   53  53 100 CALM      30.20R
*CALDWELL      NOT AVBL
*CROCKETT      CLOUDY    54  50  87 N8        30.20R
*BRENHAM       LGT RAIN  56  55  94 N9        30.16R
HUNTSVILLE     LGT RAIN  55  54  96 VRB3      30.16R
CONROE         LGT RAIN  57  55  93 N5        30.13R
HOUSTON BUSH   LGT RAIN  60  57  89 N10       30.11R
HOUSTON HOBBY  CLOUDY    73  70  90 S9        30.08R
*HOUSTON SW AP CLOUDY    72  70  93 SE5       30.10R
PEARLAND       CLOUDY    74  70  87 S9        30.10R
HOUSTON HOOKS  NOT AVBL
ELLINGTON FLD  NOT AVBL
SUGAR LAND     CLOUDY    62  62 100 N10       30.09R
*HOUSTON EXEC  PTSUNNY   59  57  94 NE14      30.12R
*CLEVELAND MUN CLOUDY    58  56  94 N6        30.14R
*WHARTON       CLOUDY    63  60  91 NW9       30.09R
*COLUMBUS      RAIN      56  55  94 N7        30.13R
*EAGLE LAKE    CLOUDY    60  60  99 N8        30.11R
$$

TXZ214>216-236>238-171700-
THE UPPER TEXAS COAST

CITY           SKY/WX    TMP DP  RH WIND       PRES   REMARKS
*ORANGE        CLOUDY   N/A N/A N/A S10       30.12R
PORT ARTHUR    CLOUDY    73  69  87 S13       30.09R
GALVESTON      CLOUDY    71  69  93 SE10      30.10R
ANGLETON       LGT RAIN  76  71  85 S12       30.09R
*BAY CITY      CLOUDY    74  73  96 SE8       30.08R
PALACIOS       CLOUDY    72  70  93 SE9       30.07R
$$

TXZ229>234-239>247-171700-
TEXAS COASTAL BEND AND RIO GRANDE PLAINS

CITY           SKY/WX    TMP DP  RH WIND       PRES   REMARKS
VICTORIA       CLOUDY    63  61  93 N10       30.07R FOG
*BEEVILLE      LGT RAIN  62  62 100 S5        30.05R
ROCKPORT       CLOUDY    72  70  93 SE12      30.05R FOG
*PORT ARANSAS  CLOUDY    70  69  99 SE9       30.06R FOG
*PORT LAVACA   CLOUDY    73  73  98 SE9       30.06S
*INGLESIDE     CLOUDY    75  72  88 SE10G17   30.05R
CORPUS CHRISTI CLOUDY    74  71  91 SE16      30.04R
CORPUS NAS     NOT AVBL
*ROBSTOWN      CLOUDY    73  73 100 SE9       30.04R
ALICE          CLOUDY    73  70  90 S9        30.04R
KINGSVILLE NAS CLOUDY    74  67  78 SE12      30.04R
COTULLA        CLOUDY    64  60  87 E12       30.04R FOG
*FAITH RANCH   CLOUDY    66  63  88 E8        30.00R
LAREDO         CLOUDY    70  67  90 E12       30.00R
$$

TXZ248>255-171700-
DEEP SOUTH TEXAS

CITY           SKY/WX    TMP DP  RH WIND       PRES   REMARKS
BROWNSVILLE    CLOUDY    76  71  85 SE12      30.02R
PORT ISABEL    CLOUDY    74  72  93 E9        30.01R
*SOUTH PADRE   NOT AVBL
HARLINGEN      CLOUDY    74  72  93 SE12      30.00R
*HEBBRONVILLE  CLOUDY    70  67  89 SE9       30.04R
MCALLEN        CLOUDY    76  69  79 SE9       30.01R
*WESLACO       CLOUDY    75  69  81 S7        30.00R
FALFURRIAS     CLOUDY    74  69  85 SE8       30.03R
EDINBURG       CLOUDY    75  69  80 SE6       30.02R
*ZAPATA        CLOUDY    72  66  83 SE9       29.98S
$$

TXZ213>215-236>238-242>244-246-247-251-254-255-171700-
CMAN STATIONS

STATION/POSITION TIME  TEMP    WIND        PRES    WAVE
                       AIR SEA DIR/SP/G            HT/PER
                 (UTC) (F)     (DEG/KT/KT) (MB)    (FT/S)
SABINE PASS      1524   68 64  150/  8/ 10 1020.7
SEA RIM ST PARK  1500   65     140/  6/  8 1019.5
NORTH JETTY/GLS  1518   69 62  130/  5/  7   N/A
EAGLE POINT      1530   68 67  160/  7/  9 1018.9
MORGANS POINT    1524   68 64  140/  2/  5 1018.8
PORT O`CONNOR    1530   68     130/  9/ 10 1017.3
PORT ARANSAS     1500   68 63  110/ 12/ 12 1016.5
MALAQUITE BEACH  1530   67 65  110/  9/  9 1017.7
BAFFIN BAY       1530   68 69  110/  8/ 11 1017.3
PORT ISABEL      1530   72 69  170/  6/  9 1016.4
$$

GMZ080-GMZ150>470-171700-
OFFSHORE BUOY REPORTS

STATION/POSITION TIME  TEMP    WIND        PRES    WAVE
                       AIR SEA DIR/SP/G            HT/PER
                 (UTC) (F)     (DEG/KT/KT) (MB)    (FT/S)
20 E GALVESTON   1450   67 62  150/  8/ 10 1018.3    3/ 7
90 E PT ARANSAS  1450   74 73  140/ 16/ 19 1017.3    5/ 7
35 NE PT MANSFLD 1450   71     140/ 12/ 16 1015.7    5/ 8
200 E PT ISABEL  1450   76 75  130/ 16/ 17 1017.7    5/ 8
$$



USA.gov is the U.S. government's official web portal to all federal, state and local government web resources and services.